owner,sensor,date,latitude,longitude,vertical_datum,sea_water_practical_salinity,qcFlag 
TCOON,ioos:station:TCOON:170:1,2015-08-01T04:30:00Z,27.2970,-97.4049,0.0,36.0,1111122 
TCOON,ioos:station:TCOON:170:1,2015-08-01T05:30:00Z,27.2970,-97.4049,0.0,36.1,1111122 
TCOON,ioos:station:TCOON:170:1,2015-08-01T06:30:00Z,27.2970,-97.4049,0.0,36.1,1111122 
TCOON,ioos:station:TCOON:170:1,2015-08-01T08:00:00Z,27.2970,-97.4049,0.0,36.1,1111122 
TCOON,ioos:station:TCOON:170:1,2015-08-01T08:30:00Z,27.2970,-97.4049,0.0,36.1,1111122 
TCOON,ioos:station:TCOON:170:1,2015-08-01T09:30:00Z,27.2970,-97.4049,0.0,36.1,1111122 
TCOON,ioos:station:TCOON:170:1,2015-08-01T10:30:00Z,27.2970,-97.4049,0.0,36.1,1111122 
TCOON,ioos:station:TCOON:170:1,2015-08-01T11:30:00Z,27.2970,-97.4049,0.0,36.1,1111122 
TCOON,ioos:station:TCOON:170:1,2015-08-01T12:30:00Z,27.2970,-97.4049,0.0,36.1,1111122 
TCOON,ioos:station:TCOON:170:1,2015-08-01T13:30:00Z,27.2970,-97.4049,0.0,36.2,1111122 
TCOON,ioos:station:TCOON:170:1,2015-08-01T14:30:00Z,27.2970,-97.4049,0.0,36.1,1111122 
TCOON,ioos:station:TCOON:170:1,2015-08-01T15:30:00Z,27.2970,-97.4049,0.0,36.1,1111122 
TCOON,ioos:station:TCOON:170:1,2015-08-01T18:30:00Z,27.2970,-97.4049,0.0,36.2,1111122 
TCOON,ioos:station:TCOON:170:1,2015-08-01T19:30:00Z,27.2970,-97.4049,0.0,36.2,1111122 
TCOON,ioos:station:TCOON:170:1,2015-08-01T20:30:00Z,27.2970,-97.4049,0.0,36.3,1111122 
TCOON,ioos:station:TCOON:170:1,2015-08-01T21:30:00Z,27.2970,-97.4049,0.0,36.3,1111122 
TCOON,ioos:station:TCOON:170:1,2015-08-01T23:30:00Z,27.2970,-97.4049,0.0,36.4,1111122 
TCOON,ioos:station:TCOON:170:1,2015-08-02T00:30:00Z,27.2970,-97.4049,0.0,36.6,1111122 
TCOON,ioos:station:TCOON:170:1,2015-08-02T01:30:00Z,27.2970,-97.4049,0.0,36.6,1111122 
TCOON,ioos:station:TCOON:170:1,2015-08-02T02:30:00Z,27.2970,-97.4049,0.0,36.6,1111122 
TCOON,ioos:station:TCOON:170:1,2015-08-02T03:30:00Z,27.2970,-97.4049,0.0,36.6,1111122 
TCOON,ioos:station:TCOON:170:1,2015-08-02T04:30:00Z,27.2970,-97.4049,0.0,36.6,1111122 
TCOON,ioos:station:TCOON:170:1,2015-08-02T05:30:00Z,27.2970,-97.4049,0.0,36.6,1111122 
TCOON,ioos:station:TCOON:170:1,2015-08-02T06:30:00Z,27.2970,-97.4049,0.0,36.6,1111122 
TCOON,ioos:station:TCOON:170:1,2015-08-02T07:30:00Z,27.2970,-97.4049,0.0,36.6,1111122 
TCOON,ioos:station:TCOON:170:1,2015-08-02T08:30:00Z,27.2970,-97.4049,0.0,36.7,1111122 
TCOON,ioos:station:TCOON:170:1,2015-08-02T09:30:00Z,27.2970,-97.4049,0.0,36.7,1111122 
TCOON,ioos:station:TCOON:170:1,2015-08-02T10:30:00Z,27.2970,-97.4049,0.0,36.7,1111122 
TCOON,ioos:station:TCOON:170:1,2015-08-02T11:30:00Z,27.2970,-97.4049,0.0,36.7,1111122 
TCOON,ioos:station:TCOON:170:1,2015-08-03T04:30:00Z,27.2970,-97.4049,0.0,36.6,1111122 
TCOON,ioos:station:TCOON:170:1,2015-08-03T05:30:00Z,27.2970,-97.4049,0.0,37.0,1111122 
TCOON,ioos:station:TCOON:170:1,2015-08-03T06:30:00Z,27.2970,-97.4049,0.0,37.4,1111122 
TCOON,ioos:station:TCOON:170:1,2015-08-04T03:30:00Z,27.2970,-97.4049,0.0,36.8,1111122 
TCOON,ioos:station:TCOON:170:1,2015-08-04T04:30:00Z,27.2970,-97.4049,0.0,36.5,1111122 
TCOON,ioos:station:TCOON:170:1,2015-08-04T05:30:00Z,27.2970,-97.4049,0.0,36.2,1111122 
TCOON,ioos:station:TCOON:170:1,2015-08-04T06:30:00Z,27.2970,-97.4049,0.0,36.4,1111122 
TCOON,ioos:station:TCOON:170:1,2015-08-04T07:30:00Z,27.2970,-97.4049,0.0,36.3,1111122 
TCOON,ioos:station:TCOON:170:1,2015-08-04T08:30:00Z,27.2970,-97.4049,0.0,36.5,1111122 
TCOON,ioos:station:TCOON:170:1,2015-08-04T10:30:00Z,27.2970,-97.4049,0.0,36.3,1111122 
TCOON,ioos:station:TCOON:170:1,2015-08-04T11:30:00Z,27.2970,-97.4049,0.0,36.2,1111122 
TCOON,ioos:station:TCOON:170:1,2015-08-04T12:30:00Z,27.2970,-97.4049,0.0,36.0,1111122 
TCOON,ioos:station:TCOON:170:1,2015-08-04T14:30:00Z,27.2970,-97.4049,0.0,35.9,1111122 
TCOON,ioos:station:TCOON:170:1,2015-08-04T15:30:00Z,27.2970,-97.4049,0.0,35.8,1111122 
TCOON,ioos:station:TCOON:170:1,2015-08-04T20:00:00Z,27.2970,-97.4049,0.0,36.4,1111122 
TCOON,ioos:station:TCOON:170:1,2015-08-04T21:30:00Z,27.2970,-97.4049,0.0,36.5,1111122 
TCOON,ioos:station:TCOON:170:1,2015-08-05T00:30:00Z,27.2970,-97.4049,0.0,36.6,1111122 
TCOON,ioos:station:TCOON:170:1,2015-08-05T01:30:00Z,27.2970,-97.4049,0.0,36.2,1111122 
TCOON,ioos:station:TCOON:170:1,2015-08-05T03:30:00Z,27.2970,-97.4049,0.0,36.0,1111122 
TCOON,ioos:station:TCOON:170:1,2015-08-05T04:30:00Z,27.2970,-97.4049,0.0,36.1,1111122 
TCOON,ioos:station:TCOON:170:1,2015-08-05T05:30:00Z,27.2970,-97.4049,0.0,35.8,1111122 
TCOON,ioos:station:TCOON:170:1,2015-08-05T06:30:00Z,27.2970,-97.4049,0.0,35.5,1111122 
TCOON,ioos:station:TCOON:170:1,2015-08-05T07:30:00Z,27.2970,-97.4049,0.0,35.4,1111122 
TCOON,ioos:station:TCOON:170:1,2015-08-05T08:30:00Z,27.2970,-97.4049,0.0,35.5,1111122 
TCOON,ioos:station:TCOON:170:1,2015-08-05T09:30:00Z,27.2970,-97.4049,0.0,35.7,1111122 
TCOON,ioos:station:TCOON:170:1,2015-08-05T10:30:00Z,27.2970,-97.4049,0.0,35.5,1111122 
TCOON,ioos:station:TCOON:170:1,2015-08-05T11:30:00Z,27.2970,-97.4049,0.0,35.6,1111122 
TCOON,ioos:station:TCOON:170:1,2015-08-05T13:00:00Z,27.2970,-97.4049,0.0,35.0,1111122 
TCOON,ioos:station:TCOON:170:1,2015-08-05T13:30:00Z,27.2970,-97.4049,0.0,34.8,1111122 
TCOON,ioos:station:TCOON:170:1,2015-08-05T14:30:00Z,27.2970,-97.4049,0.0,35.3,1111122 
TCOON,ioos:station:TCOON:170:1,2015-08-05T18:30:00Z,27.2970,-97.4049,0.0,36.1,1111122 
TCOON,ioos:station:TCOON:170:1,2015-08-05T19:30:00Z,27.2970,-97.4049,0.0,36.2,1111122 
TCOON,ioos:station:TCOON:170:1,2015-08-05T20:30:00Z,27.2970,-97.4049,0.0,36.5,1111122 
TCOON,ioos:station:TCOON:170:1,2015-08-05T21:30:00Z,27.2970,-97.4049,0.0,36.7,1111122 
TCOON,ioos:station:TCOON:170:1,2015-08-05T22:30:00Z,27.2970,-97.4049,0.0,36.6,1111122 
TCOON,ioos:station:TCOON:170:1,2015-08-05T23:30:00Z,27.2970,-97.4049,0.0,36.4,1111122 
TCOON,ioos:station:TCOON:170:1,2015-08-06T00:30:00Z,27.2970,-97.4049,0.0,36.4,1111122 
TCOON,ioos:station:TCOON:170:1,2015-08-06T01:30:00Z,27.2970,-97.4049,0.0,36.3,1111122 
TCOON,ioos:station:TCOON:170:1,2015-08-06T02:30:00Z,27.2970,-97.4049,0.0,36.2,1111122 
TCOON,ioos:station:TCOON:170:1,2015-08-06T03:30:00Z,27.2970,-97.4049,0.0,35.9,1111122 
TCOON,ioos:station:TCOON:170:1,2015-08-06T04:30:00Z,27.2970,-97.4049,0.0,36.0,1111122 
TCOON,ioos:station:TCOON:170:1,2015-08-06T05:30:00Z,27.2970,-97.4049,0.0,36.2,1111122 
TCOON,ioos:station:TCOON:170:1,2015-08-06T09:30:00Z,27.2970,-97.4049,0.0,35.8,1111122 
TCOON,ioos:station:TCOON:170:1,2015-08-06T12:30:00Z,27.2970,-97.4049,0.0,36.1,1111122 
TCOON,ioos:station:TCOON:170:1,2015-08-06T15:30:00Z,27.2970,-97.4049,0.0,36.6,1111122 
TCOON,ioos:station:TCOON:170:1,2015-08-06T17:30:00Z,27.2970,-97.4049,0.0,37.3,1111122 
TCOON,ioos:station:TCOON:170:1,2015-08-06T18:30:00Z,27.2970,-97.4049,0.0,37.6,1111122 
TCOON,ioos:station:TCOON:170:1,2015-08-06T20:00:00Z,27.2970,-97.4049,0.0,38.0,1111122 
TCOON,ioos:station:TCOON:170:1,2015-08-06T20:30:00Z,27.2970,-97.4049,0.0,38.0,1111122 
TCOON,ioos:station:TCOON:170:1,2015-08-06T22:30:00Z,27.2970,-97.4049,0.0,37.3,1111122 
TCOON,ioos:station:TCOON:170:1,2015-08-06T23:30:00Z,27.2970,-97.4049,0.0,37.0,1111122 
TCOON,ioos:station:TCOON:170:1,2015-08-07T00:30:00Z,27.2970,-97.4049,0.0,37.0,1111122 
TCOON,ioos:station:TCOON:170:1,2015-08-07T04:30:00Z,27.2970,-97.4049,0.0,36.9,1111122 
TCOON,ioos:station:TCOON:170:1,2015-08-07T06:30:00Z,27.2970,-97.4049,0.0,37.3,1111122 
TCOON,ioos:station:TCOON:170:1,2015-08-07T08:30:00Z,27.2970,-97.4049,0.0,37.1,1111122 
TCOON,ioos:station:TCOON:170:1,2015-08-07T10:30:00Z,27.2970,-97.4049,0.0,36.5,1111122 
TCOON,ioos:station:TCOON:170:1,2015-08-07T13:30:00Z,27.2970,-97.4049,0.0,36.0,1111122 
TCOON,ioos:station:TCOON:170:1,2015-08-07T14:30:00Z,27.2970,-97.4049,0.0,36.7,1111122 
TCOON,ioos:station:TCOON:170:1,2015-08-07T15:30:00Z,27.2970,-97.4049,0.0,37.1,1111122 
TCOON,ioos:station:TCOON:170:1,2015-08-07T16:30:00Z,27.2970,-97.4049,0.0,37.2,1111122 
TCOON,ioos:station:TCOON:170:1,2015-08-07T17:30:00Z,27.2970,-97.4049,0.0,37.4,1111122 
TCOON,ioos:station:TCOON:170:1,2015-08-07T18:30:00Z,27.2970,-97.4049,0.0,37.9,1111122 
TCOON,ioos:station:TCOON:170:1,2015-08-07T19:30:00Z,27.2970,-97.4049,0.0,38.1,1111122 
TCOON,ioos:station:TCOON:170:1,2015-08-07T20:30:00Z,27.2970,-97.4049,0.0,36.6,1111122 
TCOON,ioos:station:TCOON:170:1,2015-08-07T21:30:00Z,27.2970,-97.4049,0.0,38.1,1111122 
TCOON,ioos:station:TCOON:170:1,2015-08-07T22:30:00Z,27.2970,-97.4049,0.0,37.7,1111122 
TCOON,ioos:station:TCOON:170:1,2015-08-08T00:30:00Z,27.2970,-97.4049,0.0,37.2,1111122 
TCOON,ioos:station:TCOON:170:1,2015-08-08T01:30:00Z,27.2970,-97.4049,0.0,37.3,1111122 
TCOON,ioos:station:TCOON:170:1,2015-08-08T02:30:00Z,27.2970,-97.4049,0.0,37.1,1111122 
TCOON,ioos:station:TCOON:170:1,2015-08-08T03:30:00Z,27.2970,-97.4049,0.0,37.0,1111122 
TCOON,ioos:station:TCOON:170:1,2015-08-08T04:30:00Z,27.2970,-97.4049,0.0,37.0,1111122 
TCOON,ioos:station:TCOON:170:1,2015-08-08T05:30:00Z,27.2970,-97.4049,0.0,36.9,1111122 
TCOON,ioos:station:TCOON:170:1,2015-08-08T06:30:00Z,27.2970,-97.4049,0.0,37.0,1111122 
TCOON,ioos:station:TCOON:170:1,2015-08-08T07:30:00Z,27.2970,-97.4049,0.0,37.0,1111122 
TCOON,ioos:station:TCOON:170:1,2015-08-08T08:30:00Z,27.2970,-97.4049,0.0,37.1,1111122 
TCOON,ioos:station:TCOON:170:1,2015-08-08T09:30:00Z,27.2970,-97.4049,0.0,37.0,1111122 
TCOON,ioos:station:TCOON:170:1,2015-08-08T11:30:00Z,27.2970,-97.4049,0.0,36.6,1111122 
TCOON,ioos:station:TCOON:170:1,2015-08-08T12:30:00Z,27.2970,-97.4049,0.0,36.0,1111122 
TCOON,ioos:station:TCOON:170:1,2015-08-08T13:30:00Z,27.2970,-97.4049,0.0,36.4,1111122 
TCOON,ioos:station:TCOON:170:1,2015-08-08T15:30:00Z,27.2970,-97.4049,0.0,37.1,1111122 
TCOON,ioos:station:TCOON:170:1,2015-08-08T16:30:00Z,27.2970,-97.4049,0.0,37.2,1111122 
TCOON,ioos:station:TCOON:170:1,2015-08-08T17:30:00Z,27.2970,-97.4049,0.0,37.2,1111122 
TCOON,ioos:station:TCOON:170:1,2015-08-08T18:30:00Z,27.2970,-97.4049,0.0,37.4,1111122 
TCOON,ioos:station:TCOON:170:1,2015-08-08T19:30:00Z,27.2970,-97.4049,0.0,37.6,1111122 
TCOON,ioos:station:TCOON:170:1,2015-08-08T20:30:00Z,27.2970,-97.4049,0.0,37.0,1111122 
TCOON,ioos:station:TCOON:170:1,2015-08-08T21:30:00Z,27.2970,-97.4049,0.0,37.8,1111122 
TCOON,ioos:station:TCOON:170:1,2015-08-09T04:30:00Z,27.2970,-97.4049,0.0,37.4,1111122 
TCOON,ioos:station:TCOON:170:1,2015-08-09T05:30:00Z,27.2970,-97.4049,0.0,37.4,1111122 
TCOON,ioos:station:TCOON:170:1,2015-08-09T06:30:00Z,27.2970,-97.4049,0.0,37.4,1111122 
TCOON,ioos:station:TCOON:170:1,2015-08-09T07:30:00Z,27.2970,-97.4049,0.0,37.7,1111122 
TCOON,ioos:station:TCOON:170:1,2015-08-09T08:30:00Z,27.2970,-97.4049,0.0,37.7,1111122 
TCOON,ioos:station:TCOON:170:1,2015-08-09T09:30:00Z,27.2970,-97.4049,0.0,37.9,1111122 
TCOON,ioos:station:TCOON:170:1,2015-08-09T10:30:00Z,27.2970,-97.4049,0.0,37.6,1111122 
TCOON,ioos:station:TCOON:170:1,2015-08-09T11:30:00Z,27.2970,-97.4049,0.0,36.5,1111122 
TCOON,ioos:station:TCOON:170:1,2015-08-09T12:30:00Z,27.2970,-97.4049,0.0,36.3,1111122 
TCOON,ioos:station:TCOON:170:1,2015-08-09T13:30:00Z,27.2970,-97.4049,0.0,36.0,1111122 
TCOON,ioos:station:TCOON:170:1,2015-08-09T14:30:00Z,27.2970,-97.4049,0.0,36.4,1111122 
TCOON,ioos:station:TCOON:170:1,2015-08-09T16:30:00Z,27.2970,-97.4049,0.0,37.7,1111122 
TCOON,ioos:station:TCOON:170:1,2015-08-09T18:30:00Z,27.2970,-97.4049,0.0,37.5,1111122 
TCOON,ioos:station:TCOON:170:1,2015-08-09T19:30:00Z,27.2970,-97.4049,0.0,37.3,1111122 
TCOON,ioos:station:TCOON:170:1,2015-08-09T20:30:00Z,27.2970,-97.4049,0.0,37.5,1111122 
TCOON,ioos:station:TCOON:170:1,2015-08-09T22:30:00Z,27.2970,-97.4049,0.0,38.1,1111122 
TCOON,ioos:station:TCOON:170:1,2015-08-10T00:30:00Z,27.2970,-97.4049,0.0,38.5,1111122 
TCOON,ioos:station:TCOON:170:1,2015-08-10T01:30:00Z,27.2970,-97.4049,0.0,38.4,1111122 
TCOON,ioos:station:TCOON:170:1,2015-08-10T02:30:00Z,27.2970,-97.4049,0.0,38.5,1111122 
TCOON,ioos:station:TCOON:170:1,2015-08-10T04:30:00Z,27.2970,-97.4049,0.0,38.6,1111122 
TCOON,ioos:station:TCOON:170:1,2015-08-10T06:30:00Z,27.2970,-97.4049,0.0,38.5,1111122 
TCOON,ioos:station:TCOON:170:1,2015-08-10T07:30:00Z,27.2970,-97.4049,0.0,38.6,1111122 
TCOON,ioos:station:TCOON:170:1,2015-08-10T08:30:00Z,27.2970,-97.4049,0.0,38.4,1111122 
TCOON,ioos:station:TCOON:170:1,2015-08-10T09:30:00Z,27.2970,-97.4049,0.0,38.2,1111122 
TCOON,ioos:station:TCOON:170:1,2015-08-10T10:30:00Z,27.2970,-97.4049,0.0,37.8,1111122 
TCOON,ioos:station:TCOON:170:1,2015-08-10T11:30:00Z,27.2970,-97.4049,0.0,37.7,1111122 
TCOON,ioos:station:TCOON:170:1,2015-08-10T13:30:00Z,27.2970,-97.4049,0.0,36.3,1111122 
TCOON,ioos:station:TCOON:170:1,2015-08-10T15:30:00Z,27.2970,-97.4049,0.0,36.7,1111122 
TCOON,ioos:station:TCOON:170:1,2015-08-10T16:30:00Z,27.2970,-97.4049,0.0,36.6,1111122 
TCOON,ioos:station:TCOON:170:1,2015-08-10T17:30:00Z,27.2970,-97.4049,0.0,36.9,1111122 
TCOON,ioos:station:TCOON:170:1,2015-08-10T18:30:00Z,27.2970,-97.4049,0.0,36.7,1111122 
TCOON,ioos:station:TCOON:170:1,2015-08-10T19:30:00Z,27.2970,-97.4049,0.0,36.8,1111122 
TCOON,ioos:station:TCOON:170:1,2015-08-10T20:30:00Z,27.2970,-97.4049,0.0,36.8,1111122 
TCOON,ioos:station:TCOON:170:1,2015-08-10T21:30:00Z,27.2970,-97.4049,0.0,36.8,1111122 
TCOON,ioos:station:TCOON:170:1,2015-08-10T23:30:00Z,27.2970,-97.4049,0.0,37.1,1111122 
TCOON,ioos:station:TCOON:170:1,2015-08-11T00:30:00Z,27.2970,-97.4049,0.0,37.2,1111122 
TCOON,ioos:station:TCOON:170:1,2015-08-11T02:30:00Z,27.2970,-97.4049,0.0,37.5,1111122 
TCOON,ioos:station:TCOON:170:1,2015-08-11T04:30:00Z,27.2970,-97.4049,0.0,37.7,1111122 
TCOON,ioos:station:TCOON:170:1,2015-08-11T05:30:00Z,27.2970,-97.4049,0.0,37.8,1111122 
TCOON,ioos:station:TCOON:170:1,2015-08-11T06:30:00Z,27.2970,-97.4049,0.0,37.9,1111122 
TCOON,ioos:station:TCOON:170:1,2015-08-11T07:30:00Z,27.2970,-97.4049,0.0,38.0,1111122 
TCOON,ioos:station:TCOON:170:1,2015-08-11T08:30:00Z,27.2970,-97.4049,0.0,38.0,1111122 
TCOON,ioos:station:TCOON:170:1,2015-08-11T13:30:00Z,27.2970,-97.4049,0.0,37.9,1111122 
TCOON,ioos:station:TCOON:170:1,2015-08-11T14:30:00Z,27.2970,-97.4049,0.0,37.9,1111122 
TCOON,ioos:station:TCOON:170:1,2015-08-11T15:30:00Z,27.2970,-97.4049,0.0,37.9,1111122 
TCOON,ioos:station:TCOON:170:1,2015-08-11T16:30:00Z,27.2970,-97.4049,0.0,37.9,1111122 
TCOON,ioos:station:TCOON:170:1,2015-08-11T18:30:00Z,27.2970,-97.4049,0.0,38.0,1111122 
TCOON,ioos:station:TCOON:170:1,2015-08-11T19:30:00Z,27.2970,-97.4049,0.0,38.0,1111122 
TCOON,ioos:station:TCOON:170:1,2015-08-11T20:30:00Z,27.2970,-97.4049,0.0,38.0,1111122 
TCOON,ioos:station:TCOON:170:1,2015-08-11T21:30:00Z,27.2970,-97.4049,0.0,38.1,1111122 
TCOON,ioos:station:TCOON:170:1,2015-08-11T22:30:00Z,27.2970,-97.4049,0.0,38.1,1111122 
TCOON,ioos:station:TCOON:170:1,2015-08-12T00:30:00Z,27.2970,-97.4049,0.0,38.2,1111122 
TCOON,ioos:station:TCOON:170:1,2015-08-12T05:30:00Z,27.2970,-97.4049,0.0,38.4,1111122 
TCOON,ioos:station:TCOON:170:1,2015-08-12T08:30:00Z,27.2970,-97.4049,0.0,38.3,1111122 
TCOON,ioos:station:TCOON:170:1,2015-08-12T09:30:00Z,27.2970,-97.4049,0.0,38.2,1111122 
TCOON,ioos:station:TCOON:170:1,2015-08-12T10:30:00Z,27.2970,-97.4049,0.0,38.1,1111122 
TCOON,ioos:station:TCOON:170:1,2015-08-12T11:30:00Z,27.2970,-97.4049,0.0,38.1,1111122 
TCOON,ioos:station:TCOON:170:1,2015-08-12T12:30:00Z,27.2970,-97.4049,0.0,38.2,1111122 
TCOON,ioos:station:TCOON:170:1,2015-08-12T13:30:00Z,27.2970,-97.4049,0.0,38.2,1111122 
TCOON,ioos:station:TCOON:170:1,2015-08-12T15:30:00Z,27.2970,-97.4049,0.0,38.2,1111122 
TCOON,ioos:station:TCOON:170:1,2015-08-12T16:30:00Z,27.2970,-97.4049,0.0,38.3,1111122 
TCOON,ioos:station:TCOON:170:1,2015-08-12T18:30:00Z,27.2970,-97.4049,0.0,38.3,1111122 
TCOON,ioos:station:TCOON:170:1,2015-08-12T19:30:00Z,27.2970,-97.4049,0.0,38.4,1111122 
TCOON,ioos:station:TCOON:170:1,2015-08-12T20:30:00Z,27.2970,-97.4049,0.0,38.5,1111122 
TCOON,ioos:station:TCOON:170:1,2015-08-13T03:30:00Z,27.2970,-97.4049,0.0,38.7,1111122 
TCOON,ioos:station:TCOON:170:1,2015-08-13T05:30:00Z,27.2970,-97.4049,0.0,38.9,1111122 
TCOON,ioos:station:TCOON:170:1,2015-08-13T08:00:00Z,27.2970,-97.4049,0.0,38.8,1111122 
TCOON,ioos:station:TCOON:170:1,2015-08-13T08:30:00Z,27.2970,-97.4049,0.0,38.8,1111122 
TCOON,ioos:station:TCOON:170:1,2015-08-13T09:30:00Z,27.2970,-97.4049,0.0,38.9,1111122 
TCOON,ioos:station:TCOON:170:1,2015-08-13T10:30:00Z,27.2970,-97.4049,0.0,38.9,1111122 
TCOON,ioos:station:TCOON:170:1,2015-08-13T11:30:00Z,27.2970,-97.4049,0.0,38.9,1111122 
TCOON,ioos:station:TCOON:170:1,2015-08-13T12:30:00Z,27.2970,-97.4049,0.0,38.9,1111122 
TCOON,ioos:station:TCOON:170:1,2015-08-13T13:30:00Z,27.2970,-97.4049,0.0,38.9,1111122 
TCOON,ioos:station:TCOON:170:1,2015-08-13T14:30:00Z,27.2970,-97.4049,0.0,38.9,1111122 
TCOON,ioos:station:TCOON:170:1,2015-08-13T15:30:00Z,27.2970,-97.4049,0.0,38.8,1111122 
TCOON,ioos:station:TCOON:170:1,2015-08-13T16:30:00Z,27.2970,-97.4049,0.0,38.9,1111122 
TCOON,ioos:station:TCOON:170:1,2015-08-13T17:30:00Z,27.2970,-97.4049,0.0,38.9,1111122 
TCOON,ioos:station:TCOON:170:1,2015-08-13T18:30:00Z,27.2970,-97.4049,0.0,38.8,1111122 
TCOON,ioos:station:TCOON:170:1,2015-08-13T19:30:00Z,27.2970,-97.4049,0.0,38.8,1111122 
TCOON,ioos:station:TCOON:170:1,2015-08-13T20:30:00Z,27.2970,-97.4049,0.0,38.9,1111122 
TCOON,ioos:station:TCOON:170:1,2015-08-13T21:30:00Z,27.2970,-97.4049,0.0,38.7,1111122 
TCOON,ioos:station:TCOON:170:1,2015-08-13T22:30:00Z,27.2970,-97.4049,0.0,38.8,1111122 
TCOON,ioos:station:TCOON:170:1,2015-08-13T23:30:00Z,27.2970,-97.4049,0.0,38.9,1111122 
TCOON,ioos:station:TCOON:170:1,2015-08-14T00:30:00Z,27.2970,-97.4049,0.0,38.8,1111122 
TCOON,ioos:station:TCOON:170:1,2015-08-14T06:30:00Z,27.2970,-97.4049,0.0,39.3,1111122 
TCOON,ioos:station:TCOON:170:1,2015-08-14T08:00:00Z,27.2970,-97.4049,0.0,39.3,1111122 
TCOON,ioos:station:TCOON:170:1,2015-08-14T09:30:00Z,27.2970,-97.4049,0.0,39.1,1111122 
TCOON,ioos:station:TCOON:170:1,2015-08-14T10:30:00Z,27.2970,-97.4049,0.0,38.7,1111122 
TCOON,ioos:station:TCOON:170:1,2015-08-14T11:30:00Z,27.2970,-97.4049,0.0,38.7,1111122 
TCOON,ioos:station:TCOON:170:1,2015-08-14T12:30:00Z,27.2970,-97.4049,0.0,38.5,1111122 
TCOON,ioos:station:TCOON:170:1,2015-08-14T13:30:00Z,27.2970,-97.4049,0.0,38.3,1111122 
TCOON,ioos:station:TCOON:170:1,2015-08-14T14:30:00Z,27.2970,-97.4049,0.0,38.3,1111122 
TCOON,ioos:station:TCOON:170:1,2015-08-14T15:30:00Z,27.2970,-97.4049,0.0,38.3,1111122 
TCOON,ioos:station:TCOON:170:1,2015-08-14T17:30:00Z,27.2970,-97.4049,0.0,38.1,1111122 
TCOON,ioos:station:TCOON:170:1,2015-08-14T18:30:00Z,27.2970,-97.4049,0.0,38.2,1111122 
TCOON,ioos:station:TCOON:170:1,2015-08-14T19:30:00Z,27.2970,-97.4049,0.0,38.2,1111122 
TCOON,ioos:station:TCOON:170:1,2015-08-14T20:30:00Z,27.2970,-97.4049,0.0,38.3,1111122 
TCOON,ioos:station:TCOON:170:1,2015-08-14T21:30:00Z,27.2970,-97.4049,0.0,38.5,1111122 
TCOON,ioos:station:TCOON:170:1,2015-08-14T22:30:00Z,27.2970,-97.4049,0.0,38.3,1111122 
TCOON,ioos:station:TCOON:170:1,2015-08-14T23:30:00Z,27.2970,-97.4049,0.0,38.4,1111122 
TCOON,ioos:station:TCOON:170:1,2015-08-15T00:30:00Z,27.2970,-97.4049,0.0,38.7,1111122 
TCOON,ioos:station:TCOON:170:1,2015-08-15T01:30:00Z,27.2970,-97.4049,0.0,38.8,1111122 
TCOON,ioos:station:TCOON:170:1,2015-08-15T02:30:00Z,27.2970,-97.4049,0.0,38.8,1111122 
TCOON,ioos:station:TCOON:170:1,2015-08-15T05:30:00Z,27.2970,-97.4049,0.0,39.0,1111122 
TCOON,ioos:station:TCOON:170:1,2015-08-15T06:30:00Z,27.2970,-97.4049,0.0,39.3,1111122 
TCOON,ioos:station:TCOON:170:1,2015-08-15T09:30:00Z,27.2970,-97.4049,0.0,39.2,1111122 
TCOON,ioos:station:TCOON:170:1,2015-08-15T10:30:00Z,27.2970,-97.4049,0.0,39.1,1111122 
TCOON,ioos:station:TCOON:170:1,2015-08-15T11:30:00Z,27.2970,-97.4049,0.0,39.0,1111122 
TCOON,ioos:station:TCOON:170:1,2015-08-15T13:30:00Z,27.2970,-97.4049,0.0,38.8,1111122 
TCOON,ioos:station:TCOON:170:1,2015-08-15T14:30:00Z,27.2970,-97.4049,0.0,38.9,1111122 
TCOON,ioos:station:TCOON:170:1,2015-08-15T15:30:00Z,27.2970,-97.4049,0.0,38.9,1111122 
TCOON,ioos:station:TCOON:170:1,2015-08-15T16:30:00Z,27.2970,-97.4049,0.0,38.9,1111122 
TCOON,ioos:station:TCOON:170:1,2015-08-15T17:30:00Z,27.2970,-97.4049,0.0,38.8,1111122 
TCOON,ioos:station:TCOON:170:1,2015-08-15T18:30:00Z,27.2970,-97.4049,0.0,38.8,1111122 
TCOON,ioos:station:TCOON:170:1,2015-08-15T19:30:00Z,27.2970,-97.4049,0.0,39.0,1111122 
TCOON,ioos:station:TCOON:170:1,2015-08-15T20:30:00Z,27.2970,-97.4049,0.0,39.2,1111122 
TCOON,ioos:station:TCOON:170:1,2015-08-15T22:30:00Z,27.2970,-97.4049,0.0,39.4,1111122 
TCOON,ioos:station:TCOON:170:1,2015-08-15T23:30:00Z,27.2970,-97.4049,0.0,39.5,1111122 
TCOON,ioos:station:TCOON:170:1,2015-08-16T00:30:00Z,27.2970,-97.4049,0.0,39.3,1111122 
TCOON,ioos:station:TCOON:170:1,2015-08-16T01:30:00Z,27.2970,-97.4049,0.0,39.6,1111122 
TCOON,ioos:station:TCOON:170:1,2015-08-16T02:30:00Z,27.2970,-97.4049,0.0,39.6,1111122 
TCOON,ioos:station:TCOON:170:1,2015-08-16T03:30:00Z,27.2970,-97.4049,0.0,39.6,1111122 
TCOON,ioos:station:TCOON:170:1,2015-08-16T08:00:00Z,27.2970,-97.4049,0.0,39.7,1111122 
TCOON,ioos:station:TCOON:170:1,2015-08-16T08:30:00Z,27.2970,-97.4049,0.0,39.7,1111122 
TCOON,ioos:station:TCOON:170:1,2015-08-16T10:30:00Z,27.2970,-97.4049,0.0,39.7,1111122 
TCOON,ioos:station:TCOON:170:1,2015-08-16T14:30:00Z,27.2970,-97.4049,0.0,39.7,1111122 
TCOON,ioos:station:TCOON:170:1,2015-08-16T15:30:00Z,27.2970,-97.4049,0.0,39.8,1111122 
TCOON,ioos:station:TCOON:170:1,2015-08-16T16:30:00Z,27.2970,-97.4049,0.0,39.8,1111122 
TCOON,ioos:station:TCOON:170:1,2015-08-16T17:30:00Z,27.2970,-97.4049,0.0,39.8,1111122 
TCOON,ioos:station:TCOON:170:1,2015-08-16T18:30:00Z,27.2970,-97.4049,0.0,39.8,1111122 
TCOON,ioos:station:TCOON:170:1,2015-08-16T19:30:00Z,27.2970,-97.4049,0.0,39.9,1111122 
TCOON,ioos:station:TCOON:170:1,2015-08-16T20:30:00Z,27.2970,-97.4049,0.0,40.2,1111122 
TCOON,ioos:station:TCOON:170:1,2015-08-16T21:30:00Z,27.2970,-97.4049,0.0,40.1,1111122 
TCOON,ioos:station:TCOON:170:1,2015-08-16T22:30:00Z,27.2970,-97.4049,0.0,40.2,1111122 
TCOON,ioos:station:TCOON:170:1,2015-08-17T00:30:00Z,27.2970,-97.4049,0.0,39.9,1111122 
TCOON,ioos:station:TCOON:170:1,2015-08-17T01:30:00Z,27.2970,-97.4049,0.0,39.8,1111122 
TCOON,ioos:station:TCOON:170:1,2015-08-17T02:30:00Z,27.2970,-97.4049,0.0,39.6,1111122 
TCOON,ioos:station:TCOON:170:1,2015-08-17T03:30:00Z,27.2970,-97.4049,0.0,39.6,1111122 
TCOON,ioos:station:TCOON:170:1,2015-08-17T04:30:00Z,27.2970,-97.4049,0.0,39.7,1111122 
TCOON,ioos:station:TCOON:170:1,2015-08-17T05:30:00Z,27.2970,-97.4049,0.0,39.5,1111122 
TCOON,ioos:station:TCOON:170:1,2015-08-17T07:30:00Z,27.2970,-97.4049,0.0,39.3,1111122 
TCOON,ioos:station:TCOON:170:1,2015-08-17T08:30:00Z,27.2970,-97.4049,0.0,39.4,1111122 
TCOON,ioos:station:TCOON:170:1,2015-08-17T09:30:00Z,27.2970,-97.4049,0.0,39.3,1111122 
TCOON,ioos:station:TCOON:170:1,2015-08-17T10:30:00Z,27.2970,-97.4049,0.0,39.4,1111122 
TCOON,ioos:station:TCOON:170:1,2015-08-17T11:30:00Z,27.2970,-97.4049,0.0,39.4,1111122 
TCOON,ioos:station:TCOON:170:1,2015-08-17T12:30:00Z,27.2970,-97.4049,0.0,39.3,1111122 
TCOON,ioos:station:TCOON:170:1,2015-08-17T13:30:00Z,27.2970,-97.4049,0.0,39.3,1111122 
TCOON,ioos:station:TCOON:170:1,2015-08-17T16:30:00Z,27.2970,-97.4049,0.0,39.4,1111122 
TCOON,ioos:station:TCOON:170:1,2015-08-17T17:30:00Z,27.2970,-97.4049,0.0,39.4,1111122 
TCOON,ioos:station:TCOON:170:1,2015-08-17T18:30:00Z,27.2970,-97.4049,0.0,39.4,1111122 
TCOON,ioos:station:TCOON:170:1,2015-08-17T20:30:00Z,27.2970,-97.4049,0.0,39.4,1111122 
TCOON,ioos:station:TCOON:170:1,2015-08-17T23:00:00Z,27.2970,-97.4049,0.0,39.5,1111122 
TCOON,ioos:station:TCOON:170:1,2015-08-18T00:30:00Z,27.2970,-97.4049,0.0,39.6,1111122 
TCOON,ioos:station:TCOON:170:1,2015-08-18T01:30:00Z,27.2970,-97.4049,0.0,39.6,1111122 
TCOON,ioos:station:TCOON:170:1,2015-08-18T04:30:00Z,27.2970,-97.4049,0.0,40.0,1111122 
TCOON,ioos:station:TCOON:170:1,2015-08-18T05:30:00Z,27.2970,-97.4049,0.0,40.0,1111122 
TCOON,ioos:station:TCOON:170:1,2015-08-18T06:30:00Z,27.2970,-97.4049,0.0,40.0,1111122 
TCOON,ioos:station:TCOON:170:1,2015-08-18T08:30:00Z,27.2970,-97.4049,0.0,39.9,1111122 
TCOON,ioos:station:TCOON:170:1,2015-08-18T10:30:00Z,27.2970,-97.4049,0.0,39.9,1111122 